Lid_Strength_Index
-1 -1 -0 -0 -0 -0 -0 0 2 4 3 0 1 -1 -2 -2 -1 -2 -2 3 2 2 2 2 2 3 3 3 3 3 3 3 3 3 3 2 2 1
-0 -1 -0 -0 -0 -0 -0 0 0 2 3 1 0 -1 -2 -1 -0 -2 -1 1 3 3 3 3 3 3 4 4 4 4 4 4 4 4 4 4 3 2
-1 -0 -0 -1 -0 -0 -0 -0 0 1 2 1 -1 -1 -1 -1 -1 -2 -1 -1 1 4 4 4 4 5 5 5 5 5 5 5 5 5 5 5 5 4
-0 -0 -0 -0 -0 -0 0 0 0 -0 1 2 1 0 -0 -1 -1 -1 -1 -1 -1 4 5 5 6 6 6 5 5 5 6 6 7 6 6 6 5 6
-0 -0 -0 -0 0 0 0 0 0 -0 0 1 2 0 0 -1 -0 -1 -1 -1 -1 4 5 6 7 7 7 6 6 6 6 7 7 7 7 7 6 7
-0 -0 -0 -0 -0 -0 0 0 0 1 1 1 1 1 0 -1 0 1 1 -0 0 0 4 4 7 7 7 7 7 7 8 8 8 8 8 7 7 8
-1 -1 -1 -0 1 0 0 0 -0 1 1 1 1 1 1 1 2 1 1 1 0 -0 -0 3 5 6 7 7 7 7 8 8 8 9 9 9 8 8
0 -0 -1 -0 0 2 2 2 0 1 1 1 2 2 1 1 1 1 1 2 3 -1 0 1 2 4 6 7 7 8 8 8 8 9 9 9 9 9
-0 -0 0 -0 -0 -0 2 3 3 3 2 0 1 1 1 0 0 1 1 1 1 1 0 6 7 9 8 8 8 8 8 8 8 8 9 9 9 10
-0 -0 -0 -0 -1 -0 0 0 -0 -0 -0 -0 -0 -0 -0 -1 -0 -0 0 1 2 3 3 6 8 10 9 9 8 8 8 8 8 8 9 9 10 10
-0 -1 -0 -0 6 5 0 1 0 0 7 7 7 7 7 6 5 1 1 2 3 5 5 8 10 10 9 9 8 8 9 9 9 9 8 9 10 9
-0 0 6 3 6 7 0 1 2 1 4 7 7 6 4 4 5 3 3 3 4 6 6 9 10 10 12 9 8 8 8 9 9 9 9 9 9 6
1 1 1 7 8 8 7 0 2 2 4 3 3 4 5 7 6 6 7 6 6 7 6 8 9 9 10 11 9 8 7 7 6 7 9 9 9 7
1 2 4 9 10 8 5 8 8 6 6 6 7 8 8 8 7 7 6 5 5 5 5 5 8 8 8 10 10 7 6 6 6 6 5 6 7 6
2 6 9 10 9 8 8 8 6 5 7 8 8 8 8 8 8 8 7 6 5 5 5 4 4 5 6 8 8 7 7 6 5 5 4 3 2 1
6 6 7 7 7 6 5 4 4 4 5 6 8 8 8 8 9 8 8 7 7 6 3 3 4 4 6 6 5 6 5 4 2 1 1 0 -0 -0
6 5 6 6 6 6 6 6 5 6 7 7 8 8 8 9 9 8 8 6 6 6 5 3 2 2 2 1 2 2 1 1 0 -0 -0 1 0 0
2 3 4 5 6 7 7 7 6 6 6 7 8 8 7 8 7 7 6 5 6 6 5 4 3 3 2 1 3 0 0 0 -0 -0 0 2 2 1
3 3 3 3 3 4 4 4 5 5 5 5 6 5 6 6 6 6 5 4 4 4 4 2 1 2 3 3 1 5 1 1 1 1 1 2 2 2
3 3 3 3 3 3 4 5 6 5 5 5 5 5 5 4 3 3 2 2 1 1 2 1 1 1 3 3 3 1 6 0 1 1 1 1 1 3
1 1 0 0 1 2 2 2 3 3 2 2 2 2 2 2 2 1 2 4 2 2 2 2 1 5 1 2 3 2 1 4 2 0 0 1 2 1
0 0 -0 -1 -0 -1 -0 0 1 1 1 1 1 1 1 1 2 2 1 2 3 2 2 1 1 1 2 3 3 2 1 1 3 3 3 3 1 2
-1 -0 -0 -0 -0 -0 0 1 1 1 1 1 2 1 2 2 2 2 2 2 1 2 1 2 2 1 2 2 3 2 2 1 1 1 1 2 1 2